Home   Weather   Telford   Past weeks

Flag for United Kingdom Past Weather in Telford, England, United Kingdom — Yesterday and Last 2 Weeks

Now
41 °F

Quite cool.


Feels Like: 38 °F
Forecast: 41 / 48 °F
Wind: 5 mph from Southwest

Location: Shawbury

Current Time: Dec 11, 2016 at 4:14:20 am

Latest Report: Dec 11, 2016 at 2:50 am


Visibility: N/A

Pressure: 30.18 "Hg

Humidity: 93%

Dew Point: 39 °F

Location of TelfordLocation

Past Weather in Telford — Graph

°F

Telford Temperature Yesterday

Maximum temperature yesterday: 52 °F (at 12:50 am)
Minimum temperature yesterday: 39 °F (at 11:50 pm)
Average temperature yesterday: 48 °F

High & Low Weather Summary for the Past Weeks

 TemperatureHumidityPressure
High59 °F (Dec 7, 12:50 pm)100% (Nov 26, 5:50 pm)30.57 "Hg (Nov 26, 5:50 pm)
Low21 °F (Nov 29, 7:50 am)57% (Nov 28, 2:50 pm)30.04 "Hg (Dec 10, 3:50 pm)
Average41 °F88%30.29 "Hg
* Reported Nov 26 2:50 am — Dec 11 2:50 am, Telford, Weather by CustomWeather, © 2016

Note: Actual official high and low records may vary slightly from our data, if they occured in-between our weather recording intervals... More about our weather records

Advertising

Telford Weather History for the Previous 24 Hours

Scroll right to see more
 ConditionsComfort  
Time TempWeatherWind HumidityBarometerVisibility
2:50 am
Sun, Dec 11
41 °FQuite cool.5 mph93%30.18 "HgN/A
1:50 am41 °FPassing clouds.7 mph93%30.15 "HgN/A
12:50 am41 °FPassing clouds.6 mph100%30.15 "HgN/A
11:50 pm
Sat, Dec 10
39 °FChilly.6 mph100%30.12 "HgN/A
10:50 pm45 °FQuite cool.7 mph87%30.12 "HgN/A
9:50 pm43 °FPassing clouds.10 mph93%30.09 "HgN/A
8:50 pm43 °FPassing clouds.7 mph93%30.09 "HgN/A
7:50 pm45 °FPassing clouds.7 mph93%30.09 "HgN/A
6:50 pm45 °FRain. Overcast.6 mph100%30.09 "Hg6 mi
5:50 pm46 °FLight rain. Passing clouds.9 mph87%30.09 "HgN/A
4:50 pm50 °FSprinkles. Passing clouds.8 mph94%30.07 "HgN/A
3:50 pm50 °FRain. Broken clouds.3 mph100%30.04 "Hg3 mi
2:50 pm50 °FPartly sunny.3 mph94%30.07 "HgN/A
1:50 pm52 °FPartly sunny.3 mph88%30.07 "HgN/A
12:50 pm52 °FOvercast.6 mph88%30.09 "HgN/A
11:50 am52 °FOvercast.3 mph94%30.09 "HgN/A
10:50 am50 °FOvercast.2 mph94%30.12 "HgN/A
9:50 am50 °FPartly sunny.3 mph94%30.12 "HgN/A
8:50 am50 °FOvercast.5 mph94%30.12 "HgN/A
7:50 am48 °FOvercast.7 mph94%30.12 "HgN/A
6:50 am50 °FPassing clouds.9 mph88%30.09 "HgN/A
5:50 am50 °FOvercast.8 mph88%30.09 "HgN/A
4:50 am50 °FOvercast.6 mph94%30.09 "HgN/A
Weather by CustomWeather, © 2016

See weather overviewHow to use our weather pages